Overview Statistics Trail Chart Weather Telemetry Raw packets
 

This is the latest recevied weather packets stored in our database for station/object KC1BRV. If no packets are shown the sender has not sent any weather packets the latest 10 day(s).

<< 9 10 11 12 13 14 15 >>
Time Temp. Humidity Pressure Rain* Wind** Luminosity Snow
1788555354 26.11° C 59% 1009.9 hPa 0 mm - 41 W/m² -
1788555051 26.67° C 58% 1009.8 hPa 0 mm - 40 W/m² -
1788554747 26.67° C 58% 1010 hPa 0 mm - 40 W/m² -
1788554442 26.67° C 57% 1009.9 hPa 0 mm - 40 W/m² -
1788554138 26.67° C 57% 1009.9 hPa 0 mm - 41 W/m² -
1788553834 26.67° C 57% 1010 hPa 0 mm - 40 W/m² -
1788553530 26.67° C 56% 1010.1 hPa 0 mm - 42 W/m² -
1788553226 26.67° C 57% 1010.3 hPa 0 mm - 44 W/m² -
1788552921 26.67° C 56% 1010.2 hPa 0 mm - 72 W/m² -
1788552616 26.67° C 54% 1010 hPa 0 mm - 87 W/m² -
1788552315 27.22° C 53% 1010 hPa 0 mm - 88 W/m² -
1788552010 27.78° C 54% 1010 hPa 0 mm - 79 W/m² -
1788551709 27.22° C 52% 1010.1 hPa 0 mm - 115 W/m² -
1788551408 27.22° C 53% 1010.2 hPa 0 mm - 116 W/m² -
1788551103 27.22° C 53% 1009.8 hPa 0 mm - 56 W/m² -
1788550798 27.22° C 51% 1009.9 hPa 0 mm - 46 W/m² -
1788550493 27.78° C 53% 1009.8 hPa 0 mm - 47 W/m² -
1788550189 27.78° C 55% 1009.8 hPa 0 mm - 49 W/m² -
1788549889 27.78° C 54% 1009.9 hPa 0 mm - 46 W/m² -
1788549585 27.22° C 56% 1010 hPa 0 mm - 47 W/m² -
1788549282 27.78° C 57% 1009.9 hPa 0 mm - 46 W/m² -
1788548978 27.22° C 57% 1010.1 hPa 0 mm - 48 W/m² -
1788548672 27.22° C 57% 1010 hPa 0 mm - 58 W/m² -
1788548369 27.22° C 58% 1010 hPa 0 mm - 48 W/m² -
1788548065 27.78° C 59% 1009.9 hPa 0 mm - 49 W/m² -

* Rain latest hour (hover to see other rain measurements)
** Current wind speed in m/s (hover to see current wind gust speed)